[[{"header":{"parameterUnit":"m.s-1","parameterCategory":1,"la1":30.2991,"la2":30.254,"lo1":-89.0895,"lo2":-89.0444,"dy":0.0017,"dx":0.0017,"nx":28,"ny":28,"refTime":"2023-06-28T21:00:00:Z","depth":0,"parameterNumber":2,"parameterNumberName":"U-component_of_WINDS"},"data":[0,0,0,0,0,0,0,0,0,0,0,0,0,0,0,0,0,0,0,0,0,0,0,0,0,0,0,0,0,0,0,0,0,0,0,0,0,0,0,0,0,0,0,0,0,0,0,0,0,0,0,0,0,0,0,0,0,0,-1.5704,-1.5705,0,-1.5815,-1.5816,-1.5817,-1.5949,-1.5951,-1.5953,-1.5955,-1.6062,-1.6063,-1.6064,0,0,0,0,0,0,0,0,0,0,0,0,0,-1.5603,-1.5604,-1.5704,-1.5705,-1.5706,-1.5814,-1.5816,-1.5817,-1.5949,-1.5951,-1.5954,-1.5956,-1.6062,-1.6063,-1.6064,0,0,0,0,0,0,0,0,0,0,0,0,0,-1.5673,-1.5604,-1.5703,-1.5785,-1.5794,-1.5814,-1.5816,-1.5818,-1.5948,-1.5951,-1.5954,-1.5957,-1.6061,-1.6063,-1.6064,-1.6012,0,0,-1.6069,-1.6069,0,0,0,0,0,0,0,0,-1.5669,-1.5677,-1.5772,-1.5779,-1.5789,-1.5871,-1.582,-1.5883,-1.5947,-1.5889,-1.5955,-1.5959,-1.5996,-1.6003,-1.6017,-1.6017,-1.6021,-1.6069,-1.607,-1.607,-1.6071,0,0,0,0,0,0,0,-1.5664,-1.5672,-1.5747,-1.5773,-1.5783,-1.5815,-1.5829,-1.5832,-1.5924,-1.5894,-1.5904,-1.5916,-1.6001,-1.6015,-1.602,-1.6023,-1.6069,-1.607,-1.6071,-1.6071,-1.5987,-1.5984,0,0,0,0,0,0,-1.5647,-1.5668,-1.5744,-1.5751,-1.5735,-1.5815,-1.583,-1.5842,-1.5924,-1.594,-1.5913,-1.5922,-1.6011,-1.6018,-1.6024,-1.5968,-1.607,-1.6072,-1.6072,-1.599,-1.5987,-1.5983,0,0,0,0,0,0,-1.5645,-1.5653,-1.5739,-1.5712,-1.5726,-1.5813,-1.5825,-1.5842,-1.5856,-1.5938,-1.5955,-1.5911,-1.6014,-1.6022,-1.6015,-1.5974,-1.6072,-1.6073,-1.5994,-1.5989,-1.5985,-1.5855,0,0,0,0,0,0,-1.5641,-1.5651,-1.5632,-1.5711,-1.5726,-1.5728,-1.5823,-1.5842,-1.5859,-1.5871,-1.594,-1.5955,-1.6017,-1.6012,-1.6016,-1.5977,-1.6075,-1.5998,-1.5992,-1.5986,-1.5863,-1.5846,-1.5832,0,0,0,0,0,-1.5637,-1.5589,-1.563,-1.5639,-1.5705,-1.5725,-1.5734,-1.5808,-1.5855,-1.5837,-1.589,-1.5952,-1.5979,-1.601,-1.6016,-1.5977,-1.6001,-1.5993,-1.5987,-1.587,-1.585,-1.5832,0,0,0,0,0,0,-1.55,-1.5601,-1.5647,-1.5624,-1.5666,-1.5748,-1.5726,-1.5784,-1.5811,-1.5821,-1.5911,-1.5925,-1.5906,-1.5942,-1.5975,-1.5932,-1.5999,-1.5993,-1.5908,-1.5889,-1.5874,-1.5864,-1.6076,0,0,0,0,0,-1.5468,-1.5478,-1.5565,-1.5536,-1.5555,-1.5637,-1.5648,-1.5703,-1.5748,-1.5765,-1.5818,-1.5859,-1.5877,-1.5886,-1.5906,-1.5871,-1.5887,-1.5847,-1.5832,-1.5819,-1.5811,-1.5795,-1.5778,-1.596,-1.596,-1.5961,0,0,-1.54,-1.5456,-1.5456,-1.551,-1.5548,-1.5555,-1.565,-1.5653,-1.5659,-1.5765,-1.5761,-1.5802,-1.5853,-1.5832,-1.5825,-1.586,-1.5765,-1.581,-1.5799,-1.5798,-1.5786,-1.5769,-1.5753,-1.5956,-1.5957,-1.5957,0,0,-1.5279,-1.5323,-1.5304,-1.5342,-1.5401,-1.5457,-1.5452,-1.5527,-1.5558,-1.5557,-1.5638,-1.5646,-1.5675,-1.5708,-1.5729,-1.5626,-1.5684,-1.5631,-1.5547,-1.5531,-1.5517,-1.5504,-1.5466,-1.5452,-1.5624,-1.5623,-1.5623,0,-1.5185,-1.5201,-1.5286,-1.5285,-1.5306,-1.5408,-1.5389,-1.5421,-1.5482,-1.5494,-1.5534,-1.5574,-1.5616,-1.5603,-1.5579,-1.5593,-1.559,-1.5621,-1.5513,-1.5501,-1.5491,-1.5455,-1.5441,-1.5616,-1.5617,-1.5618,-1.5619,0,-1.5083,-1.5093,-1.507,-1.513,-1.5149,-1.5139,-1.5222,-1.5231,-1.5286,-1.5337,-1.5335,-1.539,-1.5424,-1.5426,-1.5477,-1.5422,-1.5442,-1.5496,-1.5565,-1.5465,-1.5433,-1.542,-1.5606,-1.5609,-1.5611,-1.5613,0,0,-1.4872,-1.4984,-1.4974,-1.5003,-1.5078,-1.5086,-1.5082,-1.5118,-1.5123,-1.5164,-1.5161,-1.5186,-1.5238,-1.5261,-1.5318,-1.5304,-1.5219,-1.5361,-1.5364,-1.533,-1.516,-1.5115,-1.5098,-1.526,-1.5258,-1.5256,-1.5155,0,-1.4763,-1.4761,-1.4841,-1.4817,-1.4827,-1.4926,-1.4923,-1.4967,-1.5017,-1.5032,-1.5086,-1.5101,-1.517,-1.5184,-1.5176,-1.5231,-1.5185,-1.524,-1.5256,-1.5255,-1.5236,-1.5082,-1.5035,-1.4935,-1.5143,-1.5141,-1.5139,0,-1.4632,-1.4669,-1.4646,-1.4725,-1.4732,-1.4727,-1.4768,-1.4782,-1.4835,-1.4873,-1.4901,-1.4968,-1.4969,-1.5038,-1.5039,-1.5074,-1.5087,-1.5116,-1.5114,-1.5114,-1.5188,-1.5075,-1.4906,-1.4889,-1.5121,-1.5122,-1.5124,0,-1.4478,-1.4522,-1.4515,-1.4537,-1.4629,-1.4623,-1.466,-1.4718,-1.4736,-1.4772,-1.4784,-1.4819,-1.4837,-1.4862,-1.4936,-1.498,-1.4929,-1.5004,-1.4957,-1.4955,-1.4938,-1.4937,-1.4764,-1.4952,-1.4952,-1.4952,-1.4952,0,-1.4345,-1.4326,-1.4447,-1.4442,-1.4425,-1.4518,-1.4498,-1.4546,-1.4597,-1.4602,-1.4691,-1.4694,-1.4794,-1.4808,-1.4867,-1.4859,-1.4867,-1.4895,-1.491,-1.4885,-1.4881,-1.4891,-1.4898,-1.4948,-1.4949,-1.495,-1.4951,0,-1.4167,-1.4247,-1.4246,-1.4335,-1.4357,-1.434,-1.4416,-1.4415,-1.4473,-1.4479,-1.4485,-1.4574,-1.4596,-1.4675,-1.4715,-1.4755,-1.4726,-1.4758,-1.4708,-1.4717,-1.4665,-1.4668,-1.4489,-1.447,-1.4672,-1.467,-1.4669,0,-1.4074,-1.4063,-1.4152,-1.4164,-1.4198,-1.4215,-1.4235,-1.4328,-1.4344,-1.4407,-1.4398,-1.4428,-1.4456,-1.4486,-1.4553,-1.4585,-1.4616,-1.4552,-1.4621,-1.4596,-1.4612,-1.461,-1.4609,-1.4535,-1.4532,-1.453,-1.4528,0,-1.39,-1.3942,-1.3968,-1.4008,-1.403,-1.4066,-1.4107,-1.4111,-1.4214,-1.4228,-1.4254,-1.4276,-1.432,-1.4347,-1.4391,-1.4429,-1.4494,-1.4507,-1.4498,-1.4469,-1.4439,-1.4452,-1.4663,-1.4509,-1.4511,-1.4513,-1.4514,-1.4514,-1.376,-1.3755,-1.3818,-1.3845,-1.3887,-1.3924,-1.3928,-1.3988,-1.4011,-1.4055,-1.4109,-1.4127,-1.4184,-1.425,-1.4284,-1.4299,-1.4335,-1.4322,-1.4318,-1.4312,-1.4299,-1.4441,-1.4308,-1.4308,-1.4309,-1.431,-1.431,0,-1.3588,-1.3635,-1.3659,-1.3716,-1.3737,-1.3803,-1.3853,-1.3865,-1.3881,-1.393,-1.3957,-1.3987,-1.4016,-1.4087,-1.4123,-1.4121,-1.4152,-1.4127,-1.4126,-1.4133,-1.4266,-1.4269,-1.4101,-1.4101,-1.4101,-1.4101,-1.4101,-1.4101,-1.3501,-1.3496,-1.3546,-1.3564,-1.3611,-1.3631,-1.3654,-1.3689,-1.3729,-1.3759,-1.3784,-1.3833,-1.3891,-1.3932,-1.3962,-1.3982,-1.399,-1.3954,-1.3983,-1.4104,-1.4124,-1.4143,-1.4146,-1.3955,-1.3955,-1.385,-1.3849,-1.3848]},{"header":{"parameterUnit":"m.s-1","parameterCategory":1,"la1":30.2991,"la2":30.254,"lo1":-89.0895,"lo2":-89.0444,"dy":0.0017,"dx":0.0017,"nx":28,"ny":28,"refTime":"2023-06-28T21:00:00:Z","depth":0,"parameterNumber":3,"parameterNumberName":"V-component_of_WINDS"},"data":[0,0,0,0,0,0,0,0,0,0,0,0,0,0,0,0,0,0,0,0,0,0,0,0,0,0,0,0,0,0,0,0,0,0,0,0,0,0,0,0,0,0,0,0,0,0,0,0,0,0,0,0,0,0,0,0,0,0,0.7926,0.7928,0,0.8097,0.8099,0.8101,0.8191,0.8191,0.8191,0.8191,0.8364,0.8369,0.8373,0,0,0,0,0,0,0,0,0,0,0,0,0,0.7673,0.7677,0.7926,0.7928,0.793,0.8097,0.8099,0.8102,0.8191,0.8191,0.8191,0.8191,0.8363,0.8368,0.8373,0,0,0,0,0,0,0,0,0,0,0,0,0,0.7807,0.7679,0.7925,0.7995,0.8003,0.8096,0.8099,0.8102,0.8191,0.8191,0.8191,0.8191,0.8361,0.8368,0.8374,0.8412,0,0,0.8395,0.8398,0,0,0,0,0,0,0,0,0.78,0.7817,0.7982,0.799,0.7999,0.8123,0.8074,0.8206,0.8191,0.8119,0.8191,0.8191,0.8284,0.8297,0.8328,0.842,0.8427,0.8395,0.8399,0.8402,0.8404,0,0,0,0,0,0,0,0.779,0.781,0.7994,0.7985,0.7995,0.8016,0.8036,0.8099,0.8198,0.8125,0.8132,0.8151,0.8288,0.8322,0.8333,0.843,0.8395,0.8401,0.8405,0.8408,0.8559,0.8559,0,0,0,0,0,0,0.777,0.7801,0.7988,0.7999,0.7898,0.8021,0.8042,0.8083,0.8198,0.8215,0.8151,0.8155,0.831,0.8325,0.8339,0.839,0.8402,0.8409,0.8412,0.8559,0.8559,0.8559,0,0,0,0,0,0,0.7764,0.7786,0.7981,0.7902,0.7929,0.8025,0.807,0.8086,0.812,0.8217,0.8235,0.8167,0.8311,0.833,0.8393,0.8398,0.8412,0.8418,0.8559,0.8559,0.8559,0.8492,0,0,0,0,0,0,0.7757,0.7783,0.7799,0.7902,0.7932,0.8032,0.807,0.8089,0.8131,0.8138,0.8237,0.8254,0.8312,0.8382,0.84,0.8407,0.8423,0.8559,0.8559,0.8559,0.8495,0.849,0.8486,0,0,0,0,0,0.7747,0.7773,0.78,0.7822,0.7954,0.8033,0.805,0.8118,0.8131,0.8148,0.821,0.825,0.8394,0.8388,0.8408,0.8418,0.8559,0.8559,0.8559,0.8496,0.8491,0.8486,0,0,0,0,0,0,0.7669,0.7788,0.7819,0.7879,0.7945,0.8048,0.807,0.811,0.8173,0.8177,0.8258,0.8279,0.8334,0.8383,0.8374,0.8459,0.8481,0.8485,0.8426,0.8422,0.8418,0.8405,0.8429,0,0,0,0,0,0.7658,0.7712,0.7814,0.7857,0.7889,0.7973,0.801,0.8056,0.8128,0.8156,0.8223,0.829,0.8351,0.8389,0.845,0.8502,0.8524,0.8518,0.8514,0.851,0.8512,0.8543,0.8541,0.8559,0.8559,0.8559,0,0,0.7637,0.7709,0.7739,0.7843,0.79,0.7953,0.7996,0.8051,0.8092,0.8165,0.8228,0.8279,0.836,0.8417,0.8445,0.8459,0.8512,0.851,0.8506,0.8511,0.8542,0.854,0.8539,0.8559,0.8559,0.8559,0,0,0.7627,0.7687,0.7729,0.7785,0.787,0.7927,0.7936,0.8033,0.807,0.8135,0.8191,0.8239,0.8342,0.8397,0.8438,0.8446,0.8485,0.8463,0.8441,0.847,0.8468,0.8468,0.847,0.847,0.8466,0.8465,0.8465,0,0.759,0.7674,0.7746,0.7798,0.7841,0.791,0.7953,0.8003,0.8103,0.8132,0.8145,0.8275,0.8333,0.8404,0.8406,0.8437,0.845,0.8453,0.8463,0.8463,0.8463,0.8466,0.8467,0.8462,0.8463,0.8463,0.8463,0,0.7624,0.768,0.7704,0.78,0.7846,0.7893,0.7971,0.8009,0.8051,0.8105,0.817,0.8243,0.8319,0.834,0.8381,0.8416,0.8421,0.8448,0.8471,0.8457,0.8461,0.8463,0.8458,0.8459,0.846,0.846,0,0,0.7569,0.7703,0.7711,0.7755,0.7853,0.7898,0.7947,0.8023,0.8053,0.812,0.8163,0.8247,0.8272,0.8319,0.8367,0.8392,0.8393,0.8415,0.8418,0.8408,0.8434,0.8414,0.8414,0.8419,0.842,0.842,0.8428,0,0.7572,0.7665,0.773,0.7797,0.785,0.7915,0.7958,0.8022,0.8074,0.8126,0.8183,0.8241,0.827,0.8298,0.8326,0.8387,0.8399,0.8387,0.8459,0.8461,0.8437,0.8417,0.8395,0.8399,0.843,0.843,0.843,0,0.7588,0.7653,0.7725,0.7817,0.7842,0.7879,0.7953,0.8002,0.8076,0.8111,0.8162,0.8212,0.8266,0.8283,0.8358,0.8348,0.8381,0.8415,0.8417,0.8427,0.8444,0.8425,0.8402,0.8402,0.8434,0.8434,0.8433,0,0.754,0.7645,0.7702,0.7738,0.7847,0.7871,0.7917,0.7992,0.8032,0.8096,0.8124,0.8193,0.823,0.8282,0.8348,0.8355,0.8416,0.8439,0.8446,0.8444,0.8456,0.8455,0.8438,0.8477,0.8477,0.8477,0.8477,0,0.7537,0.7578,0.7682,0.7717,0.7764,0.7839,0.7884,0.7936,0.8001,0.8046,0.8106,0.8147,0.8232,0.8283,0.8335,0.8388,0.8405,0.8435,0.8448,0.8429,0.8425,0.8452,0.8453,0.8478,0.8478,0.8478,0.8478,0,0.7492,0.7563,0.7629,0.7726,0.7752,0.7783,0.7866,0.7901,0.7956,0.8012,0.8029,0.8115,0.8178,0.8249,0.8335,0.837,0.8419,0.8439,0.8395,0.8402,0.8405,0.8403,0.8405,0.8408,0.8445,0.8445,0.8444,0,0.7485,0.7518,0.7619,0.7654,0.7699,0.7754,0.7796,0.787,0.7911,0.7997,0.8022,0.8089,0.8147,0.8245,0.8314,0.838,0.8401,0.8397,0.8411,0.8391,0.8401,0.8398,0.8401,0.8392,0.8392,0.8391,0.8391,0,0.7465,0.7498,0.7557,0.7627,0.7675,0.7734,0.7795,0.7819,0.7906,0.7948,0.8013,0.8058,0.8146,0.8212,0.8287,0.8334,0.8376,0.8385,0.8391,0.8372,0.8344,0.8359,0.8383,0.8385,0.8386,0.8386,0.8386,0.8387,0.7439,0.7471,0.7547,0.7609,0.7663,0.7718,0.7756,0.7815,0.7871,0.7949,0.7989,0.8053,0.8126,0.823,0.8276,0.8326,0.834,0.8348,0.835,0.835,0.8345,0.8336,0.834,0.8341,0.8341,0.8341,0.8341,0,0.7421,0.7473,0.753,0.7613,0.7662,0.7698,0.7767,0.7805,0.7862,0.7925,0.7981,0.8055,0.8119,0.8193,0.8262,0.8288,0.8309,0.8303,0.8302,0.8312,0.8329,0.8317,0.8285,0.8285,0.8285,0.8285,0.8285,0.8285,0.7418,0.7474,0.7516,0.7599,0.7651,0.7715,0.7751,0.7802,0.7853,0.7934,0.7987,0.8035,0.8103,0.8176,0.8236,0.8256,0.8278,0.8267,0.8292,0.8306,0.8311,0.8315,0.8305,0.8271,0.8271,0.8272,0.8272,0.8271]}]]